EHI
0 0 0 0 0 0 0 0 0 0 0 0 0 0 0 0 0 0 0 0 0 0 0 0 0 0 0 0 0 0 0 0 0 0 0 0 0 0 0 0 0 0 0
0 0 0 0 0 0 0 0 0 0 0 0 0 0 0 0 0 0 0 0 0 0 0 0 0 0 0 0 0 0 0 0 0 0 0 0 0 0 0 0 0 0 0
0 0 0 0 0 0 0 0 0 0 0 0 0 0 0 0 0 0 0 0 0 0 0 0 0 0 0 0 0 0 0 0 0 0 0 0 0 0 0 0 0 0 0
0 0 0 0 0 0 0 0 0 0 0 0 0 0 0 0 0 0 0 0 0 0 0 0 0 0 0 0 0 0 0 0 0 0 0 0 0 0 0 0 0 0 0
0 0 0 0 0 0 0 0 0 0 0 0 0 0 0 0 0 0 0 0 0 0 0 0 0 0 0 0 0 0 0 0 0 0 0 0 0 0 0 0 0 0 0
0 0 0 0 0 0 0 0 0 0 0 0 0 0 0 0 0 0 0 0 0 0 0 0 0 0 0 0 0 0 0 0 0 0 0 0 0 0 0 0 0 0 0
0 0 0 0 0 0 0 0 0 0 0 0 0 0 0 0 0 0 0 0 0 0 0 0 0 0 0 0 0 0 0 0 0 0 0 0 0 0 0 0 0 0 0
0 0 0 0 0 0 0 0 0 0 0 0 0 0 0 0 0 0 0 0 0 0 0 0 0 0 0 0 0 0 0 0 0 0 0 0 0 0 0 0 0 0 0
0 0 0 0 0 0 0 0 0 0 0 0 0 0 0 0 0 0 0 0 0 0 0 0 0 0 0 0 0 0 0 0 0 0 0 0 0 0 0 0 0 0 0
0 0 0 0 0 0 0 0 0 0 0 0 0 0 0 0 0 0 0 0 0 0 0 0 0 0 0 0 0 0 0 0 0 0 0 0 0 0 0 0 0 0 0
0 0 0 0 0 0 0 0 0 0 0 0 0 0 0 0 0 0 0 0 0 0 0 0 0 0 0 0 0 0 0 0 0 0 0 0 0 0 0 0 0 0 0
0 0 0 0 0 0 0 0 0 0 0 0 0 0 0 0 0 0 0 0 0 0 0 0 0 0 0 0 0 0 0 0 0 0 0 0 0 0 0 0 0 0 0
0 0 0 0 0 0 0 0 0 0 0 0 0 0 0 0 0 0 0 0 0 0 0 0 0 0 0 0 0 0 0 0 0 0 0 0 0 0 0 0 0 0 0
0 0 0 0 0 0 0 0 0 0 0 0 0 0 0 0 0 0 0 0 0 0 0 0 0 0 0 0 0 0 0 0 0 0 0 0 0 0 0 0 0 0 0
0 0 0 0 0 0 0 0 0 0 0 0 0 0 0 0 0 0 0 0 0 0 0 0 0 0 0 0 0 0 0 0 0 0 0 0 0 0 0 0 0 0 0
0 0 0 0 0 0 0 0 0 0 0 0 0 0 0 0 0 0 0 0 0 0 0 0 0 0 0 0 0 0 0 0 0 0 0 0 0 0 0 0 0 0 0
0 0 0 0 0 0 0 0 0 0 0 0 0 0 0 0 0 0 0 0 0 0 0 0 0 0 0 0 0 0 0 0 0 0 0 0 0 0 0 0 0 0 0
0 0 0 0 0 0 0 0 0 0 0 0 0 0 0 0 0 0 0 0 0 0 0 0 0 0 0 0 0 0 0 0 0 0 0 0 0 0 0 0 0 0 0
0 0 0 0 0 0 0 0 0 0 0 0 0 0 0 0 0 0 0 0 0 0 0 0 0 0 0 0 0 0 0 0 0 0 0 0 0 0 0 0 0 0 0
0 0 0 0 0 0 0 0 0 0 0 0 0 0 0 0 0 0 0 0 0 0 0 0 0 0 0 0 0 0 0 0 0 0 0 0 0 0 0 0 0 0 0
0 0 0 0 0 0 0 0 0 0 0 0 0 0 0 0 0 0 0 0 0 0 0 0 0 0 0 0 0 0 0 0 0 0 0 0 0 0 0 0 0 0 0
0 0 0 0 0 0 0 0 0 0 0 0 0 0 0 0 0 0 0 0 0 0 0 0 0 0 0 0 0 0 0 0 0 0 0 0 0 0 0 0 0 0 0
0 0 0 0 0 0 0 0 0 0 0 0 0 0 0 0 0 0 0 0 0 0 0 0 0 0 0 0 0 0 0 0 0 0 0 0 0 0 0 0 0 0 0
0 0 0 0 0 0 0 0 0 0 0 0 0 0 0 0 0 0 0 0 0 0 0 0 0 0 0 0 0 0 0 0 0 0 0 0 0 0 0 0 0 0 0
0 0 0 0 0 0 0 0 0 0 0 0 0 0 0 0 0 0 0 0 0 0 0 0 0 0 0 0 0 0 0 0 0 0 0 0 0 0 0 0 0 0 0
0 0 0 0 0 0 0 0 0 0 0 0 0 0 0 0 0 0 0 0 0 0 0 0 0 0 0 0 0 0 0 0 0 0 0 0 0 0 0 0 0 0 0
Wind_Speed
4 5 5 5 6 6 6 7 8 9 10 11 11 14 14 13 13 12 10 24 29 30 30 29 29 28 27 25 24 23 22 21 21 20 20 20 19 18 18 21 23 23 23
4 5 6 6 5 6 6 7 9 9 8 9 10 12 13 13 13 14 12 16 27 31 30 30 29 28 27 26 24 22 22 22 21 20 20 20 19 18 18 20 22 24 25
5 5 5 5 5 6 7 6 8 7 9 10 11 12 12 12 13 15 15 13 14 24 30 30 29 28 26 25 23 22 22 21 21 21 21 20 19 19 19 19 21 24 25
5 5 5 5 6 6 6 6 6 6 7 8 9 10 11 11 13 14 15 15 14 14 19 29 29 27 26 23 21 21 22 22 22 22 21 21 20 19 19 19 21 24 25
5 4 4 5 6 5 5 8 7 7 8 8 9 9 8 10 12 16 17 19 17 17 14 21 27 26 23 20 21 21 22 22 22 22 22 21 21 20 19 20 21 24 26
4 4 5 5 6 5 5 6 8 7 7 8 12 12 10 11 11 12 15 15 16 17 14 13 10 11 17 18 19 20 21 21 21 21 21 21 21 20 20 20 20 24 27
4 4 5 5 5 5 7 8 7 9 8 7 9 11 9 10 12 11 9 12 16 18 15 11 6 4 5 14 18 20 21 21 21 21 21 21 21 21 20 20 20 22 26
5 6 5 5 5 5 7 7 7 7 9 7 9 12 12 11 8 11 11 13 14 14 16 16 10 7 6 4 11 20 21 21 21 20 20 21 22 21 21 20 20 22 26
5 5 5 5 5 5 6 7 7 8 10 9 5 7 10 12 13 10 10 11 12 12 13 12 12 9 8 6 6 14 20 21 20 20 20 21 21 20 20 20 19 21 24
5 5 6 6 6 5 6 7 8 7 9 10 8 5 7 9 11 14 9 7 12 13 12 12 12 10 9 7 10 17 20 20 19 19 19 20 20 19 19 19 19 19 22
5 6 6 5 6 6 7 7 7 8 7 8 9 9 10 9 9 10 14 12 10 9 10 12 11 10 11 9 7 13 19 19 18 18 19 20 20 19 18 18 17 17 18
4 6 6 5 6 6 7 7 7 9 7 8 8 9 10 9 9 9 10 12 12 11 11 11 11 10 10 9 12 17 17 17 17 18 19 20 21 20 18 18 17 15 15
4 5 6 6 6 7 7 7 7 8 8 8 8 8 9 9 10 10 10 11 12 11 10 10 9 8 9 6 6 14 14 16 18 19 20 20 20 20 19 18 17 16 15
4 6 6 7 8 8 8 6 6 8 7 7 10 9 8 9 9 9 9 10 11 9 8 9 8 7 7 6 10 16 9 17 20 21 20 20 20 20 19 18 16 15 14
5 6 7 7 7 7 7 7 6 9 7 7 8 8 7 8 9 9 9 9 9 9 9 7 7 8 8 7 13 9 7 16 21 22 22 21 21 20 19 17 16 15 14
5 7 7 7 7 7 6 6 7 8 8 7 7 8 8 8 9 9 9 9 8 8 9 6 7 8 10 11 16 11 9 21 22 23 23 23 22 21 20 18 16 14 13
6 6 7 7 7 7 6 6 8 10 9 8 8 8 10 10 8 8 9 8 8 7 9 9 6 8 10 10 10 9 9 9 12 22 24 23 22 21 19 17 15 15 13
6 6 7 7 8 8 7 8 10 10 10 10 9 9 10 10 10 9 9 10 9 8 7 11 9 8 10 10 9 9 10 11 10 19 23 23 21 20 19 18 16 14 12
6 6 6 7 8 8 8 9 10 11 11 10 10 10 10 9 10 10 11 10 9 8 6 8 10 8 8 9 9 10 11 10 12 14 19 20 21 20 19 18 16 13 11
6 7 7 7 8 8 10 11 11 12 11 11 11 11 10 10 11 11 11 10 9 8 6 7 9 8 7 7 7 8 10 9 10 12 13 14 16 19 20 19 17 13 10
8 7 7 8 8 9 10 13 11 10 10 10 10 10 10 14 17 15 12 10 9 6 6 8 9 8 7 7 7 7 10 11 11 7 7 8 8 7 9 15 16 12 10
7 7 7 8 10 11 21 26 18 7 7 9 8 8 8 10 16 22 25 22 16 10 8 8 7 7 8 7 7 8 9 10 8 6 8 9 7 7 7 7 11 11 9
7 7 7 8 11 14 25 25 24 11 7 7 7 6 7 9 14 10 15 15 15 19 18 11 8 8 8 8 8 10 9 10 11 10 9 9 7 7 6 8 12 11 9
7 6 7 9 10 14 24 25 23 9 6 6 6 5 6 6 11 14 7 7 7 9 13 9 8 9 9 9 9 10 10 11 12 11 9 7 6 5 5 5 10 11 10
6 6 7 8 9 12 21 24 19 5 5 6 6 6 8 6 18 21 10 9 10 8 12 17 18 15 17 16 12 6 6 7 8 6 3 5 5 4 4 5 7 10 9
6 6 6 7 8 9 18 23 19 3 5 5 5 6 12 15 19 20 9 9 12 8 8 10 11 13 10 11 14 6 4 6 6 6 4 5 5 4 2 3 3 4 5
Wind_Direction
338 333 328 327 324 326 329 331 324 320 320 317 315 317 317 314 309 304 302 301 300 298 296 292 289 286 283 281 282 282 283 284 287 292 294 286 283 279 258 232 216 206 202
341 332 329 324 324 329 329 323 322 319 315 312 314 317 314 310 307 306 305 305 301 297 294 290 287 284 280 277 277 279 281 283 285 290 295 294 284 281 270 243 222 210 203
339 338 324 322 323 325 324 321 315 311 315 318 317 313 308 306 305 304 303 298 295 294 291 289 285 281 276 272 273 276 279 281 283 286 293 297 291 281 275 256 230 215 205
341 335 323 317 318 324 320 314 310 322 317 312 309 306 303 301 301 303 301 298 293 288 287 285 284 281 277 272 272 275 277 279 281 283 287 293 295 286 276 264 239 219 208
340 335 315 308 321 317 312 316 325 314 309 309 306 302 304 307 304 303 300 296 288 279 273 274 274 277 276 274 274 275 275 276 278 280 281 287 294 292 282 270 249 227 212
334 326 303 312 314 311 309 310 308 306 305 306 309 310 302 299 300 297 297 304 304 290 277 268 268 279 280 280 279 277 275 276 276 277 279 281 288 292 287 275 257 235 217
320 306 305 305 307 305 304 305 308 308 306 305 310 308 301 295 293 296 303 316 309 311 305 301 296 296 291 288 289 287 282 278 277 277 279 281 283 289 289 278 263 242 223
302 306 302 299 298 300 302 304 307 305 309 314 310 310 310 307 297 306 310 302 307 315 317 314 313 306 293 280 279 281 282 280 279 278 280 281 280 283 289 281 266 248 228
297 295 293 292 295 297 296 299 301 309 310 307 293 297 305 307 309 298 295 298 303 303 299 297 297 289 285 277 272 279 279 277 278 280 280 283 281 279 285 284 270 254 234
303 300 293 294 296 293 292 298 311 302 304 307 306 282 274 285 297 304 300 293 298 300 305 309 310 306 294 283 274 275 273 273 274 277 280 283 286 283 282 288 276 260 240
299 298 296 301 296 292 290 293 299 298 298 299 305 303 296 288 278 287 299 305 302 299 301 303 300 294 285 274 266 267 270 270 273 279 284 287 291 294 291 293 289 271 249
294 298 304 304 297 293 291 293 297 300 298 299 303 301 298 294 291 284 287 295 298 297 296 293 287 283 277 267 263 271 274 276 278 281 285 287 290 297 299 300 302 294 269
296 296 308 297 292 290 293 296 302 301 300 306 308 307 303 296 291 284 280 284 288 290 289 288 284 287 293 292 287 290 286 287 285 283 282 283 286 292 297 298 301 304 288
284 289 296 292 291 294 304 304 304 302 302 304 308 308 308 306 302 294 285 283 286 290 289 288 298 300 310 313 307 304 298 293 287 283 280 280 281 284 290 293 295 302 299
290 297 294 291 293 298 301 310 304 299 297 297 299 300 304 306 305 301 296 291 285 295 302 301 309 314 317 311 307 302 289 289 287 284 281 278 277 278 281 286 291 294 298
290 292 292 293 295 299 304 310 304 297 296 294 297 300 303 303 304 305 304 303 297 293 298 300 305 307 312 311 306 309 306 299 292 287 280 273 269 269 271 276 283 287 290
290 293 295 296 299 299 298 296 293 295 292 293 296 300 300 302 301 307 306 307 307 303 301 304 303 304 300 300 300 298 297 288 281 279 276 271 264 261 262 265 271 279 284
289 291 294 299 301 299 291 284 286 292 286 286 288 291 293 300 301 302 301 303 302 298 300 309 310 307 303 301 301 306 306 298 285 278 272 268 262 257 254 256 260 269 276
291 293 296 296 292 290 288 282 277 278 276 275 277 280 284 289 294 294 294 294 295 300 299 299 304 304 303 308 314 312 309 304 298 287 277 266 259 253 248 249 250 258 265
290 290 289 288 291 292 285 279 275 274 271 269 271 274 276 279 282 285 292 292 294 295 295 296 298 301 304 310 320 320 316 316 308 298 286 274 258 249 243 242 241 247 256
288 285 287 290 293 291 281 276 270 268 268 267 269 271 275 295 309 311 312 308 304 298 299 297 295 300 306 317 318 317 313 314 304 291 306 289 267 243 229 233 232 236 242
281 283 283 287 292 294 299 306 313 291 277 273 272 272 281 302 309 320 318 319 327 319 305 297 297 299 298 301 306 308 311 312 309 326 334 303 276 247 223 215 216 218 229
280 281 280 282 286 291 304 313 322 325 301 295 283 284 302 311 319 300 306 326 326 321 317 310 300 287 287 287 292 295 294 295 288 295 302 285 265 245 223 214 206 210 224
273 274 276 280 284 294 310 318 328 334 309 298 292 291 292 296 304 315 335 324 306 303 306 306 282 275 275 269 263 273 284 291 286 271 248 262 267 245 217 203 200 205 222
276 276 277 282 288 301 315 323 337 323 310 307 304 311 317 305 313 334 347 327 314 306 321 324 319 313 308 306 297 287 288 296 297 291 279 269 277 260 207 195 195 200 216
278 284 290 293 298 303 318 329 339 322 310 311 310 315 325 322 328 340 345 327 319 329 333 323 320 315 309 302 303 291 271 277 283 288 310 321 291 278 203 182 182 190 202